StationID,Date,MaxTemp,MinTemp,Precipitation,Snowfall,SnowDepth
"USC00503672","1977-10-01",,,0.00,0.00,0.00
"USC00503672","1977-10-02",50.00,35.06,0.00,0.00,0.00
"USC00503672","1977-10-03",53.06,39.92,0.00,0.00,0.00
"USC00503672","1977-10-04",46.94,39.92,0.00,0.00,0.00
"USC00503672","1977-10-05",50.00,30.92,0.00,0.00,0.00
"USC00503672","1977-10-06",44.96,37.94,43.00,0.00,0.00
"USC00503672","1977-10-07",42.98,35.06,218.00,0.00,0.00
"USC00503672","1977-10-08",42.08,30.02,5.00,0.00,0.00
"USC00503672","1977-10-09",46.04,,112.00,0.00,0.00
"USC00503672","1977-10-10",46.94,37.94,38.00,0.00,0.00
"USC00503672","1977-10-11",44.96,,91.00,0.00,0.00
"USC00503672","1977-10-12",46.04,,10.00,0.00,0.00
"USC00503672","1977-10-13",42.08,35.06,13.00,0.00,0.00
"USC00503672","1977-10-14",39.02,,5.00,0.00,0.00
"USC00503672","1977-10-15",37.94,26.06,10.00,0.00,0.00
"USC00503672","1977-10-16",35.06,,3.00,0.00,0.00
"USC00503672","1977-10-17",33.08,19.94,10.00,13.00,25.00
"USC00503672","1977-10-18",30.02,17.96,0.00,0.00,25.00
"USC00503672","1977-10-19",28.04,,0.00,0.00,0.00
"USC00503672","1977-10-20",37.04,,20.00,0.00,0.00
"USC00503672","1977-10-21",39.92,,8.00,0.00,0.00
"USC00503672","1977-10-22",41.00,,0.00,0.00,0.00
"USC00503672","1977-10-23",37.94,19.94,0.00,0.00,0.00
"USC00503672","1977-10-24",37.94,28.04,86.00,152.00,102.00
"USC00503672","1977-10-25",33.98,28.04,0.00,0.00,76.00
"USC00503672","1977-10-26",37.94,,0.00,0.00,51.00
"USC00503672","1977-10-27",42.08,30.02,20.00,0.00,0.00
"USC00503672","1977-10-28",32.00,28.94,61.00,114.00,127.00
"USC00503672","1977-10-29",32.00,26.06,99.00,76.00,203.00
"USC00503672","1977-10-30",30.02,24.08,53.00,51.00,229.00
"USC00503672","1977-10-31",33.08,24.08,0.00,0.00,203.00
"USC00503672","1977-11-01",30.92,17.96,0.00,0.00,203.00
"USC00503672","1977-11-02",32.00,19.04,0.00,0.00,178.00
"USC00503672","1977-11-03",26.06,17.96,0.00,0.00,178.00
"USC00503672","1977-11-04",30.02,19.04,0.00,0.00,178.00
"USC00503672","1977-11-05",26.96,15.08,8.00,13.00,178.00
"USC00503672","1977-11-06",30.92,10.04,0.00,0.00,152.00
"USC00503672","1977-11-07",24.98,14.00,0.00,0.00,152.00
"USC00503672","1977-11-08",21.92,10.04,0.00,0.00,152.00
"USC00503672","1977-11-09",26.06,12.02,0.00,0.00,127.00
"USC00503672","1977-11-10",26.06,12.02,0.00,0.00,127.00
"USC00503672","1977-11-11",23.00,8.96,0.00,0.00,127.00
"USC00503672","1977-11-12",19.94,12.92,38.00,140.00,254.00
"USC00503672","1977-11-13",28.04,12.92,0.00,0.00,203.00
"USC00503672","1977-11-14",24.08,10.04,0.00,0.00,178.00
"USC00503672","1977-11-15",15.08,,33.00,76.00,254.00
"USC00503672","1977-11-16",17.96,12.02,0.00,0.00,229.00
"USC00503672","1977-11-17",32.00,12.92,3.00,5.00,203.00
"USC00503672","1977-11-18",33.08,24.98,0.00,0.00,203.00
"USC00503672","1977-11-19",41.00,28.04,0.00,0.00,178.00
"USC00503672","1977-11-20",37.04,28.94,0.00,0.00,178.00
"USC00503672","1977-11-21",33.98,21.02,0.00,0.00,178.00
"USC00503672","1977-11-22",33.08,21.02,0.00,0.00,178.00
"USC00503672","1977-11-23",33.08,17.96,0.00,0.00,178.00
"USC00503672","1977-11-24",30.02,17.96,0.00,0.00,178.00
"USC00503672","1977-11-25",30.92,17.96,0.00,0.00,178.00
"USC00503672","1977-11-26",30.92,17.96,0.00,0.00,178.00
"USC00503672","1977-11-27",32.00,19.94,0.00,0.00,178.00
"USC00503672","1977-11-28",24.98,14.00,0.00,0.00,178.00
"USC00503672","1977-11-29",24.98,15.08,0.00,0.00,178.00
"USC00503672","1977-11-30",21.02,8.96,0.00,0.00,178.00
"USC00503672","1977-12-01",19.94,8.96,0.00,0.00,178.00
"USC00503672","1977-12-02",12.92,6.98,0.00,0.00,178.00
"USC00503672","1977-12-03",10.04,1.04,0.00,0.00,178.00
"USC00503672","1977-12-04",17.96,3.92,0.00,0.00,178.00
"USC00503672","1977-12-05",15.98,5.00,0.00,0.00,178.00
"USC00503672","1977-12-06",15.98,5.00,0.00,0.00,178.00
"USC00503672","1977-12-07",17.96,5.00,0.00,0.00,178.00
"USC00503672","1977-12-08",15.98,8.06,0.00,0.00,178.00
"USC00503672","1977-12-09",19.04,6.98,0.00,0.00,178.00
"USC00503672","1977-12-10",19.04,3.92,0.00,0.00,178.00
"USC00503672","1977-12-11",12.02,-9.94,0.00,0.00,178.00
"USC00503672","1977-12-12",8.96,-4.00,0.00,0.00,178.00
"USC00503672","1977-12-13",8.96,-0.04,0.00,0.00,178.00
"USC00503672","1977-12-14",24.08,-0.04,0.00,0.00,152.00
"USC00503672","1977-12-15",26.96,14.00,0.00,0.00,152.00
"USC00503672","1977-12-16",19.94,10.94,0.00,0.00,152.00
"USC00503672","1977-12-17",12.02,3.92,0.00,0.00,152.00
"USC00503672","1977-12-18",12.02,1.04,0.00,0.00,152.00
"USC00503672","1977-12-19",24.98,3.02,5.00,13.00,178.00
"USC00503672","1977-12-20",35.06,-16.96,0.00,0.00,178.00
"USC00503672","1977-12-21",35.96,32.00,0.00,0.00,152.00
"USC00503672","1977-12-22",35.06,28.04,0.00,0.00,152.00
"USC00503672","1977-12-23",35.96,32.00,20.00,0.00,152.00
"USC00503672","1977-12-24",35.06,26.96,0.00,0.00,152.00
"USC00503672","1977-12-25",37.94,28.04,0.00,0.00,152.00
"USC00503672","1977-12-26",35.06,26.96,119.00,122.00,279.00
"USC00503672","1977-12-27",28.94,17.96,0.00,0.00,279.00
"USC00503672","1977-12-28",30.92,17.96,0.00,0.00,279.00
"USC00503672","1977-12-29",33.98,17.06,0.00,0.00,254.00
"USC00503672","1977-12-30",33.08,21.92,0.00,0.00,254.00
"USC00503672","1977-12-31",35.06,21.92,0.00,0.00,254.00
"USC00503672","1978-01-01",37.94,26.96,0.00,0.00,254.00
"USC00503672","1978-01-02",30.92,23.00,0.00,0.00,254.00
"USC00503672","1978-01-03",35.96,21.92,0.00,0.00,254.00
"USC00503672","1978-01-04",33.08,19.04,0.00,0.00,254.00
"USC00503672","1978-01-05",30.92,15.98,0.00,0.00,254.00
"USC00503672","1978-01-06",28.94,15.98,0.00,0.00,254.00
"USC00503672","1978-01-07",26.96,12.92,0.00,0.00,254.00
"USC00503672","1978-01-08",35.06,,0.00,0.00,254.00
"USC00503672","1978-01-09",39.02,26.96,15.00,0.00,203.00
"USC00503672","1978-01-10",37.94,32.00,20.00,0.00,203.00
"USC00503672","1978-01-11",37.94,32.00,0.00,0.00,203.00
"USC00503672","1978-01-12",39.02,30.02,0.00,0.00,203.00
"USC00503672","1978-01-13",39.92,33.08,0.00,0.00,203.00
"USC00503672","1978-01-14",41.00,32.00,0.00,0.00,203.00
"USC00503672","1978-01-15",35.96,26.06,0.00,0.00,178.00
"USC00503672","1978-01-16",35.96,21.92,0.00,0.00,178.00
"USC00503672","1978-01-17",37.04,26.06,0.00,0.00,178.00
"USC00503672","1978-01-18",37.04,24.08,0.00,0.00,178.00
"USC00503672","1978-01-19",35.96,30.02,132.00,76.00,254.00
"USC00503672","1978-01-20",33.98,26.96,3.00,0.00,254.00
"USC00503672","1978-01-21",33.98,26.96,0.00,0.00,254.00
"USC00503672","1978-01-22",35.06,23.00,36.00,64.00,279.00
"USC00503672","1978-01-23",35.96,,23.00,13.00,279.00
"USC00503672","1978-01-24",32.00,,150.00,152.00,381.00
"USC00503672","1978-01-25",30.02,23.00,0.00,0.00,381.00
"USC00503672","1978-01-26",33.08,24.98,0.00,0.00,356.00
"USC00503672","1978-01-27",35.96,28.04,0.00,0.00,356.00
"USC00503672","1978-01-28",37.94,28.04,0.00,0.00,356.00
"USC00503672","1978-01-29",37.94,30.92,0.00,0.00,330.00
"USC00503672","1978-01-30",39.92,33.08,0.00,0.00,330.00
"USC00503672","1978-01-31",35.96,26.96,0.00,0.00,305.00
"USC00503672","1978-02-01",32.00,23.00,0.00,0.00,305.00
"USC00503672","1978-02-02",30.92,21.02,0.00,0.00,305.00
"USC00503672","1978-02-03",35.06,17.96,0.00,0.00,305.00
"USC00503672","1978-02-04",28.94,,51.00,64.00,356.00
"USC00503672","1978-02-05",23.00,8.06,74.00,89.00,406.00
"USC00503672","1978-02-06",17.96,,61.00,152.00,533.00
"USC00503672","1978-02-07",6.98,,102.00,203.00,660.00
"USC00503672","1978-02-08",12.92,-2.02,28.00,51.00,635.00
"USC00503672","1978-02-09",28.04,8.96,0.00,0.00,584.00
"USC00503672","1978-02-10",33.08,17.96,15.00,13.00,559.00
"USC00503672","1978-02-11",37.94,26.96,0.00,0.00,559.00
"USC00503672","1978-02-12",33.98,28.04,13.00,25.00,559.00
"USC00503672","1978-02-13",35.06,21.92,30.00,13.00,559.00
"USC00503672","1978-02-14",39.92,26.96,0.00,0.00,559.00
"USC00503672","1978-02-15",42.08,28.94,0.00,0.00,559.00
"USC00503672","1978-02-16",39.92,17.06,0.00,0.00,533.00
"USC00503672","1978-02-17",39.92,30.02,3.00,10.00,533.00
"USC00503672","1978-02-18",35.06,,5.00,13.00,533.00
"USC00503672","1978-02-19",37.04,28.94,33.00,25.00,559.00
"USC00503672","1978-02-20",33.98,,18.00,25.00,610.00
"USC00503672","1978-02-21",35.96,,0.00,0.00,584.00
"USC00503672","1978-02-22",37.94,,48.00,51.00,610.00
"USC00503672","1978-02-23",37.94,,107.00,25.00,610.00
"USC00503672","1978-02-24",37.94,,74.00,102.00,660.00
"USC00503672","1978-02-25",35.96,,41.00,51.00,686.00
"USC00503672","1978-02-26",37.04,26.06,0.00,0.00,686.00
"USC00503672","1978-02-27",37.94,24.08,3.00,13.00,686.00
"USC00503672","1978-02-28",33.98,26.96,38.00,51.00,737.00
"USC00503672","1978-03-01",42.08,24.98,0.00,0.00,711.00
"USC00503672","1978-03-02",37.04,17.96,0.00,0.00,686.00
"USC00503672","1978-03-03",32.00,19.94,0.00,0.00,686.00
"USC00503672","1978-03-04",32.00,15.08,0.00,0.00,686.00
"USC00503672","1978-03-05",28.04,17.96,3.00,13.00,686.00
"USC00503672","1978-03-06",28.04,19.04,0.00,0.00,686.00
"USC00503672","1978-03-07",28.04,17.06,25.00,51.00,711.00
"USC00503672","1978-03-08",32.00,12.02,33.00,38.00,737.00
"USC00503672","1978-03-09",37.04,23.00,8.00,13.00,737.00
"USC00503672","1978-03-10",42.08,21.92,0.00,0.00,711.00
"USC00503672","1978-03-11",35.06,,0.00,0.00,711.00
"USC00503672","1978-03-12",37.94,28.04,81.00,89.00,787.00
"USC00503672","1978-03-13",35.06,26.96,33.00,25.00,813.00
"USC00503672","1978-03-14",37.04,24.98,0.00,0.00,787.00
"USC00503672","1978-03-15",33.98,28.04,102.00,203.00,965.00
"USC00503672","1978-03-16",30.02,15.98,28.00,51.00,991.00
"USC00503672","1978-03-17",35.06,15.98,0.00,0.00,940.00
"USC00503672","1978-03-18",37.94,17.96,0.00,0.00,914.00
"USC00503672","1978-03-19",39.92,21.92,10.00,10.00,914.00
"USC00503672","1978-03-20",35.96,30.02,5.00,0.00,889.00
"USC00503672","1978-03-21",33.98,26.96,0.00,0.00,889.00
"USC00503672","1978-03-22",37.04,24.98,0.00,0.00,864.00
"USC00503672","1978-03-23",30.02,15.08,0.00,0.00,864.00
"USC00503672","1978-03-24",33.08,14.00,0.00,0.00,864.00
"USC00503672","1978-03-25",37.94,19.94,0.00,0.00,838.00
"USC00503672","1978-03-26",39.02,24.98,0.00,0.00,838.00
"USC00503672","1978-03-27",42.08,28.04,0.00,0.00,813.00
"USC00503672","1978-03-28",42.08,30.92,0.00,0.00,787.00
"USC00503672","1978-03-29",44.96,26.06,0.00,0.00,787.00
"USC00503672","1978-03-30",37.04,30.92,0.00,0.00,787.00
"USC00503672","1978-03-31",42.08,26.96,0.00,0.00,762.00
"USC00503672","1978-04-01",41.00,26.06,0.00,0.00,762.00
"USC00503672","1978-04-02",37.94,23.00,0.00,0.00,737.00
"USC00503672","1978-04-03",37.94,21.02,0.00,0.00,737.00
"USC00503672","1978-04-04",39.92,28.94,0.00,0.00,737.00
"USC00503672","1978-04-05",42.08,26.96,0.00,0.00,711.00
"USC00503672","1978-04-06",37.04,28.04,0.00,0.00,711.00
"USC00503672","1978-04-07",42.08,30.02,0.00,0.00,660.00
"USC00503672","1978-04-08",42.08,26.96,0.00,0.00,635.00
"USC00503672","1978-04-09",42.08,26.96,0.00,0.00,635.00
"USC00503672","1978-04-10",35.06,21.92,0.00,0.00,635.00
"USC00503672","1978-04-11",33.98,24.98,76.00,89.00,711.00
"USC00503672","1978-04-12",42.08,26.96,0.00,0.00,635.00
"USC00503672","1978-04-13",46.04,28.04,0.00,0.00,610.00
"USC00503672","1978-04-14",42.98,32.00,20.00,0.00,584.00
"USC00503672","1978-04-15",41.00,28.94,0.00,0.00,559.00
"USC00503672","1978-04-16",39.02,28.94,0.00,0.00,533.00
"USC00503672","1978-04-17",41.00,26.06,0.00,0.00,533.00
"USC00503672","1978-04-18",46.04,28.04,0.00,0.00,508.00
"USC00503672","1978-04-19",46.04,30.92,0.00,0.00,457.00
"USC00503672","1978-04-20",46.04,30.92,0.00,0.00,432.00
"USC00503672","1978-04-21",42.08,28.94,0.00,0.00,406.00
"USC00503672","1978-04-22",42.08,33.08,0.00,0.00,356.00
"USC00503672","1978-04-23",39.92,30.92,0.00,0.00,330.00
"USC00503672","1978-04-24",42.08,33.98,0.00,0.00,330.00
"USC00503672","1978-04-25",44.96,33.08,0.00,0.00,305.00
"USC00503672","1978-04-26",39.92,,30.00,13.00,279.00
"USC00503672","1978-04-27",39.02,28.04,10.00,13.00,229.00
"USC00503672","1978-04-28",39.92,30.92,0.00,0.00,203.00
"USC00503672","1978-04-29",46.04,32.00,0.00,0.00,203.00
"USC00503672","1978-04-30",48.02,37.04,0.00,0.00,152.00
"USC00503672","1978-05-01",48.02,37.04,0.00,0.00,102.00
"USC00503672","1978-05-02",48.02,35.06,0.00,0.00,25.00
"USC00503672","1978-05-03",42.98,35.06,25.00,0.00,0.00
"USC00503672","1978-05-04",44.06,35.06,0.00,0.00,0.00
"USC00503672","1978-05-05",44.96,33.08,23.00,0.00,0.00
"USC00503672","1978-05-06",42.98,32.00,0.00,0.00,0.00
"USC00503672","1978-05-07",44.96,33.98,0.00,0.00,0.00
"USC00503672","1978-05-08",46.94,,0.00,0.00,0.00
"USC00503672","1978-05-09",46.94,,0.00,0.00,0.00
"USC00503672","1978-05-10",51.98,37.04,0.00,0.00,0.00
"USC00503672","1978-05-11",51.98,35.96,0.00,0.00,0.00
"USC00503672","1978-05-12",51.98,,0.00,0.00,0.00
"USC00503672","1978-05-13",50.00,39.92,0.00,0.00,0.00
"USC00503672","1978-05-14",51.98,35.96,0.00,0.00,0.00
"USC00503672","1978-05-15",50.00,24.08,0.00,0.00,0.00
"USC00503672","1978-05-16",46.04,,0.00,0.00,0.00
"USC00503672","1978-05-17",48.02,33.98,0.00,0.00,0.00
"USC00503672","1978-05-18",50.00,33.98,8.00,0.00,0.00
"USC00503672","1978-05-19",48.02,35.96,13.00,0.00,0.00
"USC00503672","1978-05-20",50.00,37.04,0.00,0.00,0.00
"USC00503672","1978-05-21",57.92,35.96,0.00,0.00,0.00
"USC00503672","1978-05-22",48.92,,0.00,0.00,0.00
"USC00503672","1978-05-23",48.02,,25.00,0.00,0.00
"USC00503672","1978-05-24",48.02,39.02,5.00,0.00,0.00
"USC00503672","1978-05-25",50.00,35.06,33.00,0.00,0.00
"USC00503672","1978-05-26",46.04,35.06,0.00,0.00,0.00
"USC00503672","1978-05-27",48.92,35.96,20.00,0.00,0.00
"USC00503672","1978-05-28",48.92,35.96,13.00,0.00,0.00
"USC00503672","1978-05-29",48.02,37.04,28.00,0.00,0.00
"USC00503672","1978-05-30",46.94,35.96,23.00,0.00,0.00
"USC00503672","1978-05-31",46.94,37.94,0.00,0.00,0.00
"USC00503672","1978-06-01",48.02,37.94,43.00,0.00,0.00
"USC00503672","1978-06-02",48.02,37.94,51.00,0.00,0.00
"USC00503672","1978-06-03",53.06,32.00,0.00,0.00,0.00
"USC00503672","1978-06-04",53.06,37.04,0.00,0.00,0.00
"USC00503672","1978-06-05",51.08,39.92,0.00,0.00,0.00
"USC00503672","1978-06-06",55.94,39.92,0.00,0.00,0.00
"USC00503672","1978-06-07",64.04,39.02,0.00,0.00,0.00
"USC00503672","1978-06-08",55.04,44.06,0.00,0.00,0.00
"USC00503672","1978-06-09",55.04,39.92,0.00,0.00,0.00
"USC00503672","1978-06-10",55.94,33.98,0.00,0.00,0.00
"USC00503672","1978-06-11",60.08,37.94,0.00,0.00,0.00
"USC00503672","1978-06-12",55.04,41.00,0.00,0.00,0.00
"USC00503672","1978-06-13",51.98,,0.00,0.00,0.00
"USC00503672","1978-06-14",55.94,,381.00,0.00,0.00
"USC00503672","1978-06-15",55.04,39.02,0.00,0.00,0.00
"USC00503672","1978-06-16",48.92,,74.00,0.00,0.00
"USC00503672","1978-06-17",50.00,,10.00,0.00,0.00
"USC00503672","1978-06-18",48.02,39.02,30.00,0.00,0.00
"USC00503672","1978-06-19",53.96,42.08,25.00,0.00,0.00
"USC00503672","1978-06-20",62.06,41.00,0.00,0.00,0.00
"USC00503672","1978-06-21",60.98,46.04,13.00,0.00,0.00
"USC00503672","1978-06-22",55.04,42.98,58.00,0.00,0.00
"USC00503672","1978-06-23",51.98,37.94,3.00,0.00,0.00
"USC00503672","1978-06-24",53.96,33.08,0.00,0.00,0.00
"USC00503672","1978-06-25",51.98,42.08,64.00,0.00,0.00
"USC00503672","1978-06-26",53.96,42.08,33.00,0.00,0.00
"USC00503672","1978-06-27",53.06,,0.00,0.00,0.00
"USC00503672","1978-06-28",59.00,,0.00,0.00,0.00
"USC00503672","1978-06-29",55.94,39.02,0.00,0.00,0.00
"USC00503672","1978-06-30",50.00,42.08,15.00,0.00,0.00
"USC00503672","1978-07-01",53.06,41.00,48.00,0.00,0.00
"USC00503672","1978-07-02",57.92,39.02,5.00,0.00,0.00
"USC00503672","1978-07-03",51.98,46.04,28.00,0.00,0.00
"USC00503672","1978-07-04",62.96,,0.00,0.00,0.00
"USC00503672","1978-07-05",55.94,42.98,8.00,0.00,0.00
"USC00503672","1978-07-06",53.96,42.08,0.00,0.00,0.00
"USC00503672","1978-07-07",55.94,42.98,8.00,0.00,0.00
"USC00503672","1978-07-08",57.92,39.92,0.00,0.00,0.00
"USC00503672","1978-07-09",60.08,46.04,0.00,0.00,0.00
"USC00503672","1978-07-10",64.04,46.94,0.00,0.00,0.00
"USC00503672","1978-07-11",57.92,48.02,25.00,0.00,0.00
"USC00503672","1978-07-12",55.94,41.00,13.00,0.00,0.00
"USC00503672","1978-07-13",55.94,42.98,33.00,0.00,0.00
"USC00503672","1978-07-14",57.92,41.00,0.00,0.00,0.00
"USC00503672","1978-07-15",53.96,44.96,0.00,0.00,0.00
"USC00503672","1978-07-16",57.02,,0.00,0.00,0.00
"USC00503672","1978-07-17",55.04,44.06,46.00,0.00,0.00
"USC00503672","1978-07-18",62.96,44.06,69.00,0.00,0.00
"USC00503672","1978-07-19",55.04,,69.00,0.00,0.00
"USC00503672","1978-07-20",51.08,44.06,53.00,0.00,0.00
"USC00503672","1978-07-21",53.96,44.06,102.00,0.00,0.00
"USC00503672","1978-07-22",51.98,46.94,8.00,0.00,0.00
"USC00503672","1978-07-23",55.94,42.98,3.00,0.00,0.00
"USC00503672","1978-07-24",53.96,46.04,114.00,0.00,0.00
"USC00503672","1978-07-25",57.92,46.04,8.00,0.00,0.00
"USC00503672","1978-07-26",60.98,46.04,0.00,0.00,0.00
"USC00503672","1978-07-27",66.92,48.02,10.00,0.00,0.00
"USC00503672","1978-07-28",60.98,48.02,5.00,0.00,0.00
"USC00503672","1978-07-29",66.92,46.94,0.00,0.00,0.00
"USC00503672","1978-07-30",66.92,46.94,0.00,0.00,0.00
"USC00503672","1978-07-31",71.96,48.02,0.00,0.00,0.00
"USC00503672","1978-08-01",73.04,55.04,0.00,0.00,0.00
"USC00503672","1978-08-02",75.92,53.96,0.00,0.00,0.00
"USC00503672","1978-08-03",68.00,51.98,0.00,0.00,0.00
"USC00503672","1978-08-04",66.02,48.02,0.00,0.00,0.00
"USC00503672","1978-08-05",60.98,46.04,5.00,0.00,0.00
"USC00503672","1978-08-06",68.00,37.04,0.00,0.00,0.00
"USC00503672","1978-08-07",68.00,48.92,0.00,0.00,0.00
"USC00503672","1978-08-08",66.92,50.00,3.00,0.00,0.00
"USC00503672","1978-08-09",62.06,53.06,5.00,0.00,0.00
"USC00503672","1978-08-10",60.98,50.00,51.00,0.00,0.00
"USC00503672","1978-08-11",64.94,48.92,13.00,0.00,0.00
"USC00503672","1978-08-12",59.00,44.06,8.00,0.00,0.00
"USC00503672","1978-08-13",53.06,46.04,8.00,0.00,0.00
"USC00503672","1978-08-14",55.94,46.94,5.00,0.00,0.00
"USC00503672","1978-08-15",64.04,46.94,0.00,0.00,0.00
"USC00503672","1978-08-16",57.02,48.92,43.00,0.00,0.00
"USC00503672","1978-08-17",64.04,44.96,0.00,0.00,0.00
"USC00503672","1978-08-18",68.00,48.02,0.00,0.00,0.00
"USC00503672","1978-08-19",64.04,46.94,20.00,0.00,0.00
"USC00503672","1978-08-20",55.94,46.04,23.00,0.00,0.00
"USC00503672","1978-08-21",62.96,44.06,0.00,0.00,0.00
"USC00503672","1978-08-22",64.94,46.94,0.00,0.00,0.00
"USC00503672","1978-08-23",64.94,44.96,0.00,0.00,0.00
"USC00503672","1978-08-24",66.02,46.04,0.00,0.00,0.00
"USC00503672","1978-08-25",69.98,48.02,0.00,0.00,0.00
"USC00503672","1978-08-26",69.08,50.00,0.00,0.00,0.00
"USC00503672","1978-08-27",64.04,46.04,0.00,0.00,0.00
"USC00503672","1978-08-28",57.02,42.98,0.00,0.00,0.00
"USC00503672","1978-08-29",62.06,42.98,0.00,0.00,0.00
"USC00503672","1978-08-30",62.96,46.04,15.00,0.00,0.00
"USC00503672","1978-08-31",57.92,44.06,23.00,0.00,0.00
"USC00503672","1978-09-01",59.00,42.08,8.00,0.00,0.00
"USC00503672","1978-09-02",62.96,44.06,0.00,0.00,0.00
"USC00503672","1978-09-03",60.08,44.96,0.00,0.00,0.00
"USC00503672","1978-09-04",55.04,,0.00,0.00,0.00
"USC00503672","1978-09-05",55.04,,297.00,0.00,0.00
"USC00503672","1978-09-06",57.92,39.92,0.00,0.00,0.00
"USC00503672","1978-09-07",55.94,41.00,0.00,0.00,0.00
"USC00503672","1978-09-08",51.98,42.08,5.00,0.00,0.00
"USC00503672","1978-09-09",57.02,39.92,0.00,0.00,0.00
"USC00503672","1978-09-10",55.94,37.94,0.00,0.00,0.00
"USC00503672","1978-09-11",55.94,41.00,10.00,0.00,0.00
"USC00503672","1978-09-12",59.00,41.00,74.00,0.00,0.00
"USC00503672","1978-09-13",50.00,,58.00,0.00,0.00
"USC00503672","1978-09-14",55.94,,5.00,0.00,0.00
"USC00503672","1978-09-15",48.92,44.06,5.00,0.00,0.00
"USC00503672","1978-09-16",55.04,41.00,0.00,0.00,0.00
"USC00503672","1978-09-17",53.06,37.04,0.00,0.00,0.00
"USC00503672","1978-09-18",53.96,39.02,5.00,0.00,0.00
"USC00503672","1978-09-19",50.00,39.92,10.00,0.00,0.00
"USC00503672","1978-09-20",48.92,39.92,81.00,0.00,0.00
"USC00503672","1978-09-21",46.94,39.92,46.00,0.00,0.00
"USC00503672","1978-09-22",48.92,30.92,0.00,0.00,0.00
"USC00503672","1978-09-23",51.98,30.92,0.00,0.00,0.00
"USC00503672","1978-09-24",51.08,35.96,0.00,0.00,0.00
"USC00503672","1978-09-25",46.04,39.92,0.00,0.00,0.00
"USC00503672","1978-09-26",46.94,33.98,0.00,0.00,0.00
"USC00503672","1978-09-27",53.06,33.98,0.00,0.00,0.00
"USC00503672","1978-09-28",55.04,35.96,0.00,0.00,0.00
"USC00503672","1978-09-29",55.04,35.96,0.00,0.00,0.00
"USC00503672","1978-09-30",53.96,35.96,0.00,0.00,0.00
"USC00503672","1978-10-01",46.04,37.04,8.00,0.00,0.00
"USC00503672","1978-10-02",48.02,37.04,3.00,0.00,0.00
"USC00503672","1978-10-03",44.96,28.94,0.00,0.00,0.00
"USC00503672","1978-10-04",39.92,33.98,13.00,0.00,0.00
"USC00503672","1978-10-05",48.92,33.98,99.00,0.00,0.00
"USC00503672","1978-10-06",50.00,37.04,23.00,0.00,0.00
"USC00503672","1978-10-07",44.06,35.06,20.00,0.00,0.00
"USC00503672","1978-10-08",44.96,37.94,114.00,0.00,0.00
"USC00503672","1978-10-09",48.92,35.06,0.00,0.00,0.00
"USC00503672","1978-10-10",48.02,33.98,0.00,0.00,0.00
"USC00503672","1978-10-11",44.96,35.96,0.00,0.00,0.00
"USC00503672","1978-10-12",44.96,33.08,185.00,8.00,0.00
"USC00503672","1978-10-13",39.92,30.02,84.00,0.00,0.00
"USC00503672","1978-10-14",39.92,24.08,0.00,0.00,0.00
"USC00503672","1978-10-15",41.00,24.98,0.00,0.00,0.00
"USC00503672","1978-10-16",44.06,,51.00,0.00,0.00
"USC00503672","1978-10-17",44.96,,183.00,0.00,0.00
"USC00503672","1978-10-18",44.06,,10.00,0.00,0.00
"USC00503672","1978-10-19",44.06,33.08,3.00,0.00,0.00
"USC00503672","1978-10-20",39.02,21.92,33.00,13.00,0.00
"USC00503672","1978-10-21",33.08,21.92,0.00,0.00,0.00
"USC00503672","1978-10-22",33.98,21.02,0.00,0.00,0.00
"USC00503672","1978-10-23",39.02,,33.00,0.00,0.00
"USC00503672","1978-10-24",44.96,,152.00,0.00,0.00
"USC00503672","1978-10-25",39.02,26.96,84.00,0.00,0.00
"USC00503672","1978-10-26",35.06,32.00,79.00,13.00,0.00
"USC00503672","1978-10-27",37.94,28.94,0.00,0.00,0.00
"USC00503672","1978-10-28",33.08,26.06,81.00,152.00,127.00
"USC00503672","1978-10-29",39.92,,99.00,13.00,51.00
"USC00503672","1978-10-30",33.08,28.94,104.00,127.00,178.00
"USC00503672","1978-10-31",35.06,28.04,13.00,41.00,203.00
"USC00503672","1978-11-01",33.98,28.94,15.00,64.00,178.00
"USC00503672","1978-11-02",32.00,26.96,155.00,178.00,330.00
"USC00503672","1978-11-03",30.02,19.94,0.00,0.00,305.00
"USC00503672","1978-11-04",35.96,,8.00,25.00,254.00
"USC00503672","1978-11-05",35.96,,15.00,25.00,254.00
"USC00503672","1978-11-06",33.98,28.04,0.00,0.00,254.00
"USC00503672","1978-11-07",33.08,23.00,15.00,25.00,254.00
"USC00503672","1978-11-08",32.00,15.08,0.00,0.00,254.00
"USC00503672","1978-11-09",35.96,,0.00,0.00,229.00
"USC00503672","1978-11-10",35.06,28.94,0.00,0.00,203.00
"USC00503672","1978-11-11",35.06,26.96,0.00,0.00,178.00
"USC00503672","1978-11-12",37.94,33.08,8.00,0.00,152.00
"USC00503672","1978-11-13",35.06,21.92,23.00,0.00,152.00
"USC00503672","1978-11-14",28.94,19.04,0.00,0.00,152.00
"USC00503672","1978-11-15",23.00,,0.00,0.00,152.00
"USC00503672","1978-11-16",26.96,10.94,0.00,0.00,127.00
"USC00503672","1978-11-17",30.02,21.02,0.00,0.00,127.00
"USC00503672","1978-11-18",35.06,26.06,0.00,0.00,127.00
"USC00503672","1978-11-19",35.96,32.00,20.00,0.00,127.00
"USC00503672","1978-11-20",35.96,32.00,23.00,0.00,102.00
"USC00503672","1978-11-21",39.92,,183.00,0.00,76.00
"USC00503672","1978-11-22",39.02,28.94,15.00,0.00,76.00
"USC00503672","1978-11-23",30.92,21.02,0.00,0.00,51.00
"USC00503672","1978-11-24",28.04,10.94,0.00,0.00,51.00
"USC00503672","1978-11-25",37.94,19.94,3.00,0.00,51.00
"USC00503672","1978-11-26",37.94,,170.00,0.00,51.00
"USC00503672","1978-11-27",37.04,30.02,51.00,25.00,76.00
"USC00503672","1978-11-28",35.96,26.06,33.00,0.00,51.00
"USC00503672","1978-11-29",33.08,24.98,0.00,0.00,51.00
"USC00503672","1978-11-30",33.08,23.00,0.00,0.00,51.00
"USC00503672","1978-12-01",35.06,,109.00,203.00,254.00
"USC00503672","1978-12-02",32.00,26.96,91.00,64.00,254.00